Weather History for Litchfield, IL

Change the Weather History Date:

Tuesday, September 17, 2013

  Actual Average (KSPI) Record (KSPI)
Temperature  
Mean Temperature 64 °F 66 °F  
Max Temperature 73 °F 79 °F 95 °F (1954)
Min Temperature 54 °F 54 °F 39 °F (1999)
Degree Days  
Heating Degree Days 2 3  
Month to date heating degree days 20  
Since 1 July heating degree days 25  
Cooling Degree Days 0 4  
Month to date cooling degree days 94  
Year to date cooling degree days 1064  
Growing Degree Days 14 (Base 50)    
Moisture  
Dew Point 55 °F    
Average Humidity 74    
Maximum Humidity 88    
Minimum Humidity 56    
Precipitation  
Precipitation 0.00 in 0.09 in 1.53 in (1968)
Month to date precipitation 1.67  
Year to date precipitation 27.32  
Snow  
Snow 0.00 in 0.00 in 0.00 in ()
Month to date snowfall 0.0  
Since 1 July snowfall 0.0  
Since 1 September snowfall 0.0  
Snow Depth -    
Sea Level Pressure  
Sea Level Pressure 30.20 in    
Wind  
Wind Speed 6 mph (ESE)    
Max Wind Speed 10 mph    
Max Gust Speed -    
Visibility 10 miles    
Events Rain    
T = Trace of Precipitation, MM = Missing Value Source: NWS Daily Summary

Daily Weather History Graph

Daily Weather History Graph

Search for Another Location

Airport:

Trip Planner

Search our weather history database for the weather conditions in past years. The results will help you decide how hot, cold, wet, or windy it might be!

Date:

Astronomy

Sep. 17, 2013 Rise Set
Actual Time 6:42 AM CDT 7:03 PM CDT
Civil Twilight 6:15 AM CDT 7:30 PM CDT
Nautical Twilight 5:43 AM CDT 8:01 PM CDT
Astronomical Twilight 5:11 AM CDT 8:33 PM CDT
Moon 5:50 PM CDT 4:37 AM CDT
Length of Visible Light 13h 14m
Length of Day
12h 21m
Waxing Gibbous, 96% of the Moon is Illuminated
Sep 17
Waxing Gibbous
Sep 19
Full
Sep 26
Last Quarter
Oct 4
New
Oct 11
First Quarter

Hourly Weather History & Observations

Time (CDT) Temp. Dew Point Humidity Pressure Visibility Wind Dir Wind Speed Gust Speed Precip Events Conditions
12:15 AM 57.2 °F 52.2 °F 83% 30.27 in 10.0 mi East 5.8 mph - N/A   Scattered Clouds
12:35 AM 57.2 °F 52.2 °F 83% 30.27 in 10.0 mi East 6.9 mph - N/A   Scattered Clouds
12:55 AM 57.0 °F 52.0 °F 83% 30.26 in 10.0 mi East 8.1 mph - N/A   Clear
1:15 AM 56.8 °F 52.0 °F 84% 30.27 in 10.0 mi East 8.1 mph - N/A   Clear
1:35 AM 56.8 °F 52.0 °F 84% 30.27 in 10.0 mi East 6.9 mph - N/A   Clear
1:55 AM 56.5 °F 51.8 °F 84% 30.27 in 10.0 mi East 8.1 mph - N/A   Clear
2:15 AM 56.7 °F 51.8 °F 84% 30.26 in 10.0 mi East 9.2 mph - N/A   Clear
2:35 AM 56.5 °F 51.8 °F 84% 30.26 in 10.0 mi East 6.9 mph - N/A   Scattered Clouds
2:55 AM 56.5 °F 51.8 °F 84% 30.26 in 10.0 mi East 8.1 mph - N/A   Scattered Clouds
3:15 AM 56.3 °F 51.8 °F 85% 30.26 in 10.0 mi East 5.8 mph - N/A   Scattered Clouds
3:35 AM 55.9 °F 51.8 °F 86% 30.26 in 10.0 mi East 5.8 mph - N/A   Scattered Clouds
3:55 AM 55.8 °F 51.8 °F 87% 30.25 in 10.0 mi East 5.8 mph - N/A   Scattered Clouds
4:15 AM 55.6 °F 51.4 °F 86% 30.25 in 10.0 mi East 6.9 mph - N/A   Scattered Clouds
4:35 AM 55.6 °F 51.4 °F 86% 30.25 in 10.0 mi East 5.8 mph - N/A   Scattered Clouds
4:55 AM 55.8 °F 51.8 °F 87% 30.25 in 10.0 mi East 6.9 mph - N/A   Mostly Cloudy
5:15 AM 55.6 °F 51.4 °F 86% 30.24 in 10.0 mi East 6.9 mph - N/A   Scattered Clouds
5:35 AM 55.4 °F 51.4 °F 87% 30.24 in 10.0 mi East 6.9 mph - N/A   Scattered Clouds
5:55 AM 55.4 °F 51.4 °F 87% 30.24 in 10.0 mi East 6.9 mph - N/A   Clear
6:15 AM 54.9 °F 51.4 °F 88% 30.24 in 10.0 mi East 6.9 mph - N/A   Clear
6:35 AM 54.9 °F 51.4 °F 88% 30.24 in 10.0 mi ESE 5.8 mph - N/A   Clear
6:55 AM 54.9 °F 51.4 °F 88% 30.25 in 10.0 mi ESE 6.9 mph - N/A   Clear
7:15 AM 55.0 °F 51.4 °F 88% 30.25 in 10.0 mi ESE 5.8 mph - N/A   Clear
7:35 AM 55.4 °F 51.8 °F 88% 30.25 in 10.0 mi ESE 6.9 mph - N/A   Clear
7:55 AM 55.8 °F 52.0 °F 87% 30.25 in 10.0 mi ESE 5.8 mph - N/A   Clear
8:15 AM 56.5 °F 52.3 °F 86% 30.25 in 10.0 mi ESE 6.9 mph - N/A   Clear
8:35 AM 57.0 °F 52.5 °F 85% 30.25 in 10.0 mi ESE 8.1 mph - N/A   Clear
8:55 AM 58.5 °F 53.2 °F 83% 30.25 in 10.0 mi ESE 6.9 mph - N/A   Clear
9:15 AM 59.4 °F 53.8 °F 82% 30.25 in 10.0 mi SE 5.8 mph - N/A   Clear
9:35 AM 62.6 °F 54.9 °F 76% 30.24 in 10.0 mi ESE 9.2 mph - N/A   Clear
9:55 AM 63.3 °F 55.2 °F 75% 30.25 in 10.0 mi SE 9.2 mph - N/A   Scattered Clouds
10:15 AM 65.5 °F 56.3 °F 72% 30.24 in 10.0 mi ESE 8.1 mph - N/A   Scattered Clouds
10:35 AM 67.1 °F 56.7 °F 69% 30.24 in 10.0 mi SE 6.9 mph - N/A   Clear
10:55 AM 67.3 °F 56.5 °F 68% 30.24 in 10.0 mi ESE 8.1 mph - N/A   Scattered Clouds
11:15 AM 68.5 °F 57.2 °F 67% 30.24 in 10.0 mi ESE 5.8 mph - N/A   Clear
11:35 AM 69.4 °F 57.6 °F 66% 30.23 in 10.0 mi SE 5.8 mph - N/A   Mostly Cloudy
11:55 AM 71.8 °F 58.3 °F 62% 30.23 in 10.0 mi ESE 9.2 mph - N/A   Scattered Clouds
12:15 PM 72.3 °F 57.6 °F 60% 30.22 in 10.0 mi ESE 10.4 mph - N/A   Clear
12:35 PM 71.8 °F 57.2 °F 60% 30.21 in 10.0 mi ESE 10.4 mph - N/A   Scattered Clouds
12:55 PM 72.3 °F 56.7 °F 58% 30.21 in 10.0 mi SSE 6.9 mph - N/A   Mostly Cloudy
1:15 PM 72.3 °F 56.8 °F 58% 30.20 in 10.0 mi South 5.8 mph - N/A   Mostly Cloudy
1:35 PM 72.5 °F 56.8 °F 58% 30.19 in 10.0 mi SSE 6.9 mph - N/A   Mostly Cloudy
1:55 PM 71.6 °F 55.8 °F 57% 30.18 in 10.0 mi SSE 8.1 mph - N/A   Mostly Cloudy
2:15 PM 72.3 °F 56.8 °F 58% 30.18 in 10.0 mi SE 5.8 mph - N/A   Mostly Cloudy
2:35 PM 72.9 °F 56.5 °F 56% 30.17 in 10.0 mi SSE 6.9 mph - N/A   Mostly Cloudy
2:55 PM 73.4 °F 56.8 °F 56% 30.17 in 10.0 mi SSE 5.8 mph - N/A   Mostly Cloudy
3:15 PM 72.5 °F 56.1 °F 56% 30.17 in 10.0 mi SSE 4.6 mph - N/A   Mostly Cloudy
3:35 PM 73.0 °F 56.5 °F 56% 30.16 in 10.0 mi SE 6.9 mph - N/A   Mostly Cloudy
3:55 PM 72.7 °F 56.1 °F 56% 30.15 in 10.0 mi SE 4.6 mph - N/A   Mostly Cloudy
4:15 PM 72.5 °F 56.5 °F 57% 30.15 in 10.0 mi SE 3.5 mph - N/A   Overcast
4:35 PM 72.0 °F 56.3 °F 58% 30.15 in 10.0 mi SE 4.6 mph - N/A   Overcast
4:55 PM 72.0 °F 55.9 °F 57% 30.15 in 10.0 mi SSE 4.6 mph - N/A   Overcast
5:15 PM 72.0 °F 56.3 °F 58% 30.14 in 10.0 mi SE 3.5 mph - N/A   Mostly Cloudy
5:35 PM 71.6 °F 56.5 °F 59% 30.14 in 10.0 mi Calm Calm - N/A   Overcast
5:55 PM 71.1 °F 57.0 °F 61% 30.13 in 10.0 mi Calm Calm - N/A   Overcast
6:15 PM 70.7 °F 57.0 °F 62% 30.13 in 10.0 mi Calm Calm - N/A   Mostly Cloudy
6:35 PM 70.0 °F 57.4 °F 64% 30.13 in 10.0 mi Calm Calm - N/A   Mostly Cloudy
6:55 PM 69.4 °F 58.1 °F 67% 30.12 in 10.0 mi Calm Calm - N/A Rain Light Rain
7:15 PM 68.0 °F 59.9 °F 75% 30.11 in 10.0 mi ESE 3.5 mph - N/A Rain Light Rain
7:35 PM 66.7 °F 59.9 °F 79% 30.11 in 10.0 mi Calm Calm - N/A   Clear
7:55 PM 66.7 °F 59.4 °F 77% 30.11 in 10.0 mi ESE 3.5 mph - N/A   Clear
8:15 PM 65.5 °F 59.2 °F 80% 30.11 in 10.0 mi Calm Calm - N/A   Clear
8:35 PM 64.9 °F 59.4 °F 82% 30.12 in 10.0 mi Calm Calm - N/A   Clear
8:55 PM 65.3 °F 59.7 °F 82% 30.12 in 10.0 mi Calm Calm - N/A   Mostly Cloudy
9:15 PM 65.5 °F 60.1 °F 83% 30.11 in 10.0 mi ESE 3.5 mph - N/A   Mostly Cloudy
9:35 PM 66.2 °F 59.4 °F 79% 30.11 in 10.0 mi East 3.5 mph - N/A   Scattered Clouds
9:55 PM 66.0 °F 58.1 °F 76% 30.10 in 10.0 mi East 5.8 mph - N/A   Scattered Clouds
10:15 PM 66.4 °F 58.1 °F 75% 30.10 in 10.0 mi ESE 6.9 mph - N/A   Clear
10:35 PM 66.4 °F 57.6 °F 73% 30.10 in 10.0 mi ESE 6.9 mph - N/A   Clear
10:55 PM 66.2 °F 57.4 °F 73% 30.11 in 10.0 mi ESE 5.8 mph - N/A   Clear
11:15 PM 66.2 °F 57.6 °F 74% 30.10 in 10.0 mi ESE 5.8 mph - N/A   Scattered Clouds
11:35 PM 65.3 °F 57.6 °F 76% 30.10 in 10.0 mi ESE 4.6 mph - N/A   Clear
11:55 PM 64.9 °F 57.7 °F 77% 30.10 in 10.0 mi SE 5.8 mph - N/A   Clear